Location: Cheching
(60.0667°N, 164.2167°W)
Time: 13:32:22
(UTC+00:00)

NOAA 19 - Pass Details

Date: 26 January 2021
Orbit: 840 x 862 km, 99.2° (Epoch: 01 March)

Event Time Altitude Azimuth Distance (km) Brightness Sun altitude
Rises 04:10:44 0° 156° (SSE) 3,429 8.4 -9.1°
Reaches altitude 10° 04:13:06 10° 156° (SSE) 2,493 7.6 -9.3°
Maximum altitude 04:18:39 86° 70° (ENE) 867 5.2 -10.0°
Drops below altitude 10° 04:24:12 10° 341° (NNW) 2,495 7.7 -10.6°
Sets 04:26:35 0° 341° (NNW) 3,432 8.4 -10.9°
